Regional Weather Roundup
Issued by NWS

Home | Current Version | Previous Version | Graphics & Text | Print | Product List | Glossary On
Versions: 1 2 3 4 5 6 7 8 9 10 11 12 13 14 15 16 17 18 19 20 21 22 23 24 25 26 27 28 29 30 31 32 33 34 35 36 37 38 39 40 41 42 43 44 45 46 47 48 49 50
000
ASUS45 KABQ 261001
RWRNM
NEW MEXICO REGIONAL WEATHER ROUNDUP
NATIONAL WEATHER SERVICE ALBUQUERQUE NM
400 AM MDT WED APR 26 2017

NOTE: "FAIR" MEANS FEW OR NO CLOUDS BELOW 12,000 FEET AGL WITH NO
       SIGNIFICANT WEATHER OR OBSTRUCTIONS TO VISION.

      THIS PRODUCT IS RELEASED AS TWO VERSIONS.  ONE VERSION NEAR
      THE TOP OF THE HOUR CONTAINING PRELIMINARY DATA FROM ALBUQUERQUE
      AND OTHER STATIONS.  A FINAL VERSION WITH ADDITIONAL DATA IS
      ISSUED ABOUT 10 MINUTES AFTER THE HOUR.

NMZ501-503-504-510>518-261100-
NORTHWEST PLATEAU/NORTHCENTRAL MOUNTAINS

CITY           SKY/WX    TMP DP  RH WIND       PRES   REMARKS
FARMINGTON     FAIR      36  27  69 W10       29.86S WCI  28
LOS ALAMOS     FAIR      33  28  79 CALM      29.84R
SANTA FE       FAIR      34  30  85 N8        29.82R WCI  27
TAOS             N/A     34  25  69 NW9       29.83R WCI  26
ANGEL FIRE     FAIR      26  25  94 SW3       29.83R

$$
NMZ402-403-502-505>509-261100-
WESTCENTRAL MOUNTAINS/SOUTHWEST MOUNTAINS

CITY           SKY/WX    TMP DP  RH WIND       PRES   REMARKS
GALLUP         FAIR      29  24  82 CALM      29.94R
GRANTS         FAIR      31  24  72 NW14      29.93R WCI  21
SILVER CITY    FAIR      46  27  46 NW13      29.86S

$$
NMZ407-409-411-412-261100-
SOUTHERN DESERTS

CITY           SKY/WX    TMP DP  RH WIND       PRES   REMARKS
DEMING         FAIR      52  26  36 N8        29.84R
LAS CRUCES     FAIR      50  29  44 N3        29.84S
HOLLOMAN AFB   MOCLDY    52  29  41 N6        29.84S
ALAMOGORDO     CLOUDY    55  27  33 N13       29.81S
T OR C         FAIR      49  25  39 CALM      29.84R

$$
NMZ519>523-261100-
CENTRAL VALLEYS/CENTRAL HIGHLANDS

CITY           SKY/WX    TMP DP  RH WIND       PRES   REMARKS
ALBUQUERQUE    FAIR      43  31  62 NE7       29.86R
MORIARTY ARPT  FAIR      37  30  77 NW6       29.83R WCI  32
CLINES CORNERS FAIR      32  26  78 NW17      29.81R WCI  21
BELEN          FAIR      41  25  52 N10       29.86R
SOCORRO        FAIR      51  19  28 NW18G28   29.83R

$$
NMZ524>526-539-540-261100-
SOUTHCENTRAL MOUNTAINS

CITY           SKY/WX    TMP DP  RH WIND       PRES   REMARKS
RUIDOSO        NOT AVBL

$$
NMZ527>531-261100-
NORTHEAST HIGHLANDS/NORTHEAST PLAINS

CITY           SKY/WX    TMP DP  RH WIND       PRES   REMARKS
LAS VEGAS      CLOUDY    37  30  75 NE12      29.79R WCI  29
RATON          CLOUDY    36  29  75 N7        29.78R WCI  30
CLAYTON        LGT RAIN  34  33  96 N18       29.75R WCI  23

$$
NMZ532>537-261100-
EASTCENTRAL PLAINS

CITY           SKY/WX    TMP DP  RH WIND       PRES   REMARKS
SANTA ROSA     FAIR      43  34  69 N14       29.75R
TUCUMCARI      LGT RAIN  44  41  89 N24G30    29.72R
CANNON AFB     NOT AVBL
CLOVIS AIRPORT CLOUDY    48  43  81 NW7       29.68R

$$
NMZ028-029-538-261100-
SOUTHEAST PLAINS

CITY           SKY/WX    TMP DP  RH WIND       PRES   REMARKS
ROSWELL        FAIR      57  24  28 NW16G29     N/A
ARTESIA        FAIR      55  27  33 W17       29.71S
CARLSBAD       FAIR      56  33  42 W6        29.70R
HOBBS          FAIR      57  27  30 W18G25    29.69R


$$



USA.gov is the U.S. government's official web portal to all federal, state and local government web resources and services.